Weather History for Frederick, OK

Change the Weather History Date:

Friday, October 19, 2012

  Actual Average (KLTS) Record (KLTS)
Temperature  
Mean Temperature 62 °F -  
Max Temperature 79 °F 72 °F 84 °F (2005)
Min Temperature 45 °F 48 °F 33 °F (1999)
Degree Days  
Heating Degree Days 4    
Growing Degree Days 12 (Base 50)    
Moisture  
Dew Point 27 °F    
Average Humidity 31    
Maximum Humidity 53    
Minimum Humidity 12    
Precipitation  
Precipitation 0.00 in - - ()
Sea Level Pressure  
Sea Level Pressure 29.92 in    
Wind  
Wind Speed 10 mph (West)    
Max Wind Speed 14 mph    
Max Gust Speed 18 mph    
Visibility 10 miles    
Events      
Averages and records for this station are not official NWS values.
T = Trace of Precipitation, MM = Missing Value Source: NWS Daily Summary

Daily Weather History Graph

Daily Weather History Graph

Search for Another Location

Airport:

Trip Planner

Search our weather history database for the weather conditions in past years. The results will help you decide how hot, cold, wet, or windy it might be!

Date:

Astronomy

Oct. 19, 2012 Rise Set
Actual Time 7:45 AM CDT 6:56 PM CDT
Civil Twilight 7:19 AM CDT 7:21 PM CDT
Nautical Twilight 6:50 AM CDT 7:50 PM CDT
Astronomical Twilight 6:21 AM CDT 8:19 PM CDT
Moon 12:20 PM CDT (10/19) 10:44 PM CDT (10/19)
Length of Visible Light 12h 01m
Length of Day
11h 10m
Waxing Crescent, 24% of the Moon is Illuminated
Oct 19
Waxing Crescent
Oct 21
First Quarter
Oct 29
Full
Nov 6
Last Quarter
Nov 13
New

Hourly Weather History & Observations

Time (CDT) Temp. Windchill Dew Point Humidity Pressure Visibility Wind Dir Wind Speed Gust Speed Precip Events Conditions
12:53 AM 53.1 °F - 27.0 °F 37% 29.96 in 10.0 mi WNW 9.2 mph - N/A   Clear
1:53 AM 53.1 °F - 27.0 °F 37% 29.95 in 10.0 mi WNW 9.2 mph - N/A   Clear
2:53 AM 51.1 °F - 28.0 °F 41% 29.98 in 10.0 mi NNW 10.4 mph - N/A   Clear
3:53 AM 55.9 °F - 26.1 °F 32% 29.97 in 10.0 mi NW 13.8 mph - N/A   Clear
4:53 AM 52.0 °F - 27.0 °F 38% 29.98 in 10.0 mi NW 8.1 mph - N/A   Clear
5:53 AM 48.9 °F - 28.0 °F 44% 29.98 in 10.0 mi NW 10.4 mph - N/A   Clear
6:53 AM 48.9 °F - 26.1 °F 41% 29.98 in 9.0 mi NW 8.1 mph - N/A   Clear
7:53 AM 45.0 °F 42.6 °F 28.9 °F 53% 30.00 in 10.0 mi West 4.6 mph - N/A   Clear
8:53 AM 50.0 °F - 30.9 °F 48% 30.01 in 10.0 mi West 6.9 mph - N/A   Clear
9:53 AM 59.0 °F - 28.0 °F 31% 30.02 in 10.0 mi WNW 6.9 mph - N/A   Clear
10:53 AM 66.0 °F - 19.0 °F 17% 30.02 in 10.0 mi NW 11.5 mph - N/A   Clear
11:53 AM 70.0 °F - 19.9 °F 15% 30.01 in 10.0 mi NW 11.5 mph - N/A   Clear
12:53 PM 72.0 °F - 23.0 °F 16% 29.98 in 10.0 mi West 10.4 mph - N/A   Clear
1:53 PM 75.0 °F - 19.9 °F 13% 29.94 in 10.0 mi West 13.8 mph - N/A   Clear
2:53 PM 77.0 °F - 21.0 °F 12% 29.89 in 10.0 mi WSW 11.5 mph 18.4 mph N/A   Clear
3:53 PM 78.1 °F - 23.0 °F 13% 29.86 in 10.0 mi WSW 11.5 mph - N/A   Clear
4:53 PM 78.1 °F - 26.1 °F 15% 29.84 in 10.0 mi SSW 12.7 mph - N/A   Clear
5:53 PM 77.0 °F - 28.9 °F 17% 29.83 in 10.0 mi SW 10.4 mph - N/A   Clear
6:53 PM 71.1 °F - 30.9 °F 23% 29.82 in 10.0 mi SSW 5.8 mph - N/A   Clear
7:53 PM 64.0 °F - 30.9 °F 29% 29.83 in 10.0 mi SSE 9.2 mph - N/A   Clear
8:53 PM 60.1 °F - 33.1 °F 36% 29.83 in 10.0 mi SSE 9.2 mph - N/A   Clear
9:53 PM 59.0 °F - 35.1 °F 41% 29.83 in 10.0 mi SSE 10.4 mph - N/A   Clear
10:53 PM 57.0 °F - 36.0 °F 45% 29.82 in 10.0 mi SSE 9.2 mph - N/A   Clear
11:53 PM 57.0 °F - 36.0 °F 45% 29.81 in 10.0 mi South 9.2 mph - N/A   Clear